Regional Weather Roundup
Issued by NWS

Home | Current Version | Previous Version | Text Only | Print | Product List | Glossary Off
Versions: 1 2 3 4 5 6 7 8 9 10 11 12 13 14 15 16 17 18 19 20 21 22 23 24 25 26 27 28 29 30 31 32 33 34 35 36 37 38 39 40 41 42 43 44 45 46 47 48 49 50

977
ASUS43 KDTX 261401
RWRMI
MICHIGAN HOURLY REGIONAL WEATHER ROUNDUP
NATIONAL WEATHER SERVICE DETROIT/PONTIAC MI
1000 AM EDT TUE JUL 26 2016

NOTE: "FAIR" INDICATES FEW OR NO CLOUDS BELOW 12,000 FEET WITH NO
SIGNIFICANT WEATHER AND/OR OBSTRUCTION TO VISIBILITY.

MIZ047>049-052>055-059>063-066>070-074>076-081>083-261500-
SOUTHEAST LOWER MICHIGAN

CITY           SKY/WX    TMP DP  RH WIND       PRES   REMARKS
ADRIAN         SUNNY     76  63  64 CALM      30.08F
ALMA           SUNNY     76  69  80 SW9       30.07F
ANN ARBOR      SUNNY     78  63  59 E5        30.07F
BAD AXE        SUNNY     76  58  53 W5        30.07S
CARO           SUNNY     76  61  59 SW3       30.07S
DETROIT CITY   SUNNY     77  63  61 E3        30.07S
DETROIT        MOSUNNY   79  60  52 N3        30.07F
FLINT          SUNNY     80  61  52 VRB3      30.08R
GROSSE ILE     MOSUNNY   76  63  64 CALM      30.06S
HOWELL         SUNNY     76  63  63 CALM      30.09S

CITY           SKY/WX    TMP DP  RH WIND       PRES   REMARKS
JACKSON        SUNNY     75  64  68 CALM      30.09S
LAMBERTVILLE   SUNNY     77  66  69 CALM      30.07S
LANSING        SUNNY     76  62  62 CALM      30.08F
LAPEER         FAIR      76  60  58 CALM      30.08S
MASON          SUNNY     75  63  66 SW3       30.08F
MONROE         MOSUNNY   76  69  78 CALM      30.06F
MT. CLEMENS    MOSUNNY   76  60  58 CALM      30.05S
PONTIAC        MOSUNNY   76  59  55 CALM      30.07S
PORT HURON     SUNNY     73  61  64 CALM      30.06S
TRI CITIES     SUNNY     76  62  62 SW7       30.07S
MIDLAND        FAIR      77  61  57 S5        30.05S
TROY           SUNNY     77  60  55 CALM      30.09S
SAGINAW HB     SUNNY     77  61  57 SW5       30.06S
$$
MIZ043>046-050>051-056>058-064>065-071>073-077>080-261500-
SOUTHWEST LOWER MICHIGAN

CITY           SKY/WX    TMP DP  RH WIND       PRES   REMARKS
BATTLE CREEK   SUNNY     75  63  66 CALM      30.09F
BENTON HARBOR  SUNNY     79  63  57 N3        30.07S
BIG RAPIDS     SUNNY     76  67  71 CALM      30.07S
COLDWATER      SUNNY     74  65  73 CALM      30.09S
FREMONT        FAIR      74  73  96 CALM      30.06S
HOLLAND        SUNNY     79  68  69 W5        30.08S
GRAND RAPIDS   MOSUNNY   78  65  63 SW6       30.07F
IONIA          FAIR      75  64  66 SW3       30.07S
KALAMAZOO      SUNNY     78  62  57 NW3       30.08F
LUDINGTON      SUNNY     77  69  75 SW5       30.05S
MARSHALL       SUNNY     76  63  63 CALM      30.09S
MOUNT PLEASANT SUNNY     77  66  68 SW3       30.06S
MUSKEGON       MOSUNNY   82  65  56 VRB5      30.06S
SOUTH HAVEN    SUNNY     77  68  73 CALM      30.07S
$$
MIZ016>042-261500-
NORTHERN LOWER MICHIGAN

CITY           SKY/WX    TMP DP  RH WIND       PRES   REMARKS
ALPENA         SUNNY     79  58  48 W6        30.03S
BEAVER ISLAND  SUNNY     75  65  70 W6        30.02F
BELLAIRE       SUNNY     74  64  69 S6        30.05S
CADILLAC       SUNNY     73  64  73 CALM      30.07S
CHARLEVOIX     SUNNY     77  61  58 W8        30.06S
FRANKFORT      SUNNY     74  67  78 SW5       30.05S
GAYLORD        SUNNY     75  59  57 SW7       30.07R
GRAYLING       SUNNY     76  59  56 W5        30.08R
HARBOR SPRINGS SUNNY     74  63  68 SW5       30.03S
HOUGHTON LAKE  SUNNY     72  63  73 W7        30.08S
MANISTEE       SUNNY     76  66  71 VRB3      30.05S
OSCODA         SUNNY     78  58  48 W6        30.04R
ROGERS CITY    SUNNY     77  59  53 W8        30.03S
TRAVERSE CITY  MOSUNNY   79  63  57 CALM      30.03S
$$
MIZ007>008-015-261500-
EASTERN UPPER MICHIGAN

CITY           SKY/WX    TMP DP  RH WIND       PRES   REMARKS
KINROSS        SUNNY     73  62  68 SW6       30.01S
MACKINAC ISLAN SUNNY     73  64  73 W8        30.02S
S. S. MARIE    SUNNY     73  62  68 W6        29.99F
MUNISING         N/A     77  65  66 S5        29.99R
$$
MIZ004>006-011>014-085-261500-
CENTRAL UPPER MICHIGAN

CITY           SKY/WX    TMP DP  RH WIND       PRES   REMARKS
ESCANABA       SUNNY     75  64  69 W3        30.01S
MENOMINEE      SUNNY    N/A N/A N/A NW5       30.04F
SAWYER-GWINN   SUNNY     73  63  68 W5        30.03S
$$
MIZ001>003-009>011-084-261500-
WESTERN UPPER MICHIGAN

CITY           SKY/WX    TMP DP  RH WIND       PRES   REMARKS
IRON MOUNTAIN  SUNNY     75  63  66 W3        30.03F
HOUGHTON       CLOUDY    70  63  78 W14       30.00R
COPPER HARBOR    N/A     74  63  68 CALM      29.95F
IRONWOOD       MOSUNNY   73  68  83 W5        30.01F
$$

ABBREVIATIONS USED IN REMARKS
   TC - TEMPERATURE IN CELSIUS
  WCI - WIND CHILL INDEX
   HX - HEAT INDEX
  VSB - VISIBILITY





USA.gov is the U.S. government's official web portal to all federal, state and local government web resources and services.